| time (UTC) | temp F | wind direction | speed MPH | gust MPH | rain 1hr in | rain 24hr in | rain mn in | humidity % | barometer mb |
| 20260905045043 | 66 | 134 | 1.0 | 3.0 | 0.00 | 0.01 | 0.01 | 60 | 1023.6 |
| 20260905044603 | 66 | 134 | 1.0 | 4.0 | 0.00 | 0.01 | 0.01 | 60 | 1023.8 |
| 20260905044042 | 66 | 0 | 1.0 | 5.0 | 0.00 | 0.01 | 0.01 | 59 | 1023.8 |
| 20260905043542 | 66 | 134 | 2.0 | 7.0 | 0.00 | 0.01 | 0.01 | 60 | 1023.8 |
| 20260905043102 | 67 | 134 | 2.0 | 7.0 | 0.00 | 0.01 | 0.01 | 60 | 1023.9 |
| 20260905042543 | 67 | 134 | 3.0 | 7.0 | 0.00 | 0.01 | 0.01 | 60 | 1023.9 |
| 20260905042042 | 67 | 139 | 2.0 | 8.0 | 0.00 | 0.01 | 0.01 | 60 | 1023.9 |
| 20260905041559 | 67 | 132 | 3.0 | 8.0 | 0.00 | 0.01 | 0.01 | 60 | 1023.9 |
| 20260905041042 | 67 | 139 | 3.0 | 8.0 | 0.00 | 0.01 | 0.01 | 61 | 1024.0 |
| 20260905040542 | 67 | 136 | 3.0 | 8.0 | 0.00 | 0.01 | 0.01 | 62 | 1024.1 |
| 20260905040052 | 67 | 135 | 2.0 | 5.0 | 0.00 | 0.01 | 0.01 | 62 | 1024.2 |
| 20260905035542 | 67 | 130 | 3.0 | 5.0 | 0.00 | 0.01 | 0.01 | 63 | 1024.2 |
| 20260905035043 | 67 | 142 | 3.0 | 6.0 | 0.00 | 0.01 | 0.01 | 63 | 1024.3 |
| 20260905034559 | 67 | 150 | 2.0 | 8.0 | 0.00 | 0.01 | 0.01 | 63 | 1024.3 |
| 20260905034043 | 68 | 139 | 2.0 | 8.0 | 0.00 | 0.01 | 0.01 | 63 | 1024.4 |
| 20260905033542 | 68 | 138 | 2.0 | 7.0 | 0.00 | 0.01 | 0.01 | 63 | 1024.3 |
| 20260905033107 | 68 | 162 | 3.0 | 9.0 | 0.00 | 0.01 | 0.01 | 63 | 1024.3 |
| 20260905032542 | 68 | 166 | 4.0 | 9.0 | 0.00 | 0.01 | 0.01 | 63 | 1024.3 |
| 20260905032042 | 68 | 148 | 3.0 | 9.0 | 0.00 | 0.01 | 0.01 | 63 | 1024.3 |
| 20260905031552 | 68 | 138 | 3.0 | 9.0 | 0.00 | 0.01 | 0.01 | 63 | 1024.2 |
| 20260905031046 | 68 | 170 | 5.0 | 9.0 | 0.00 | 0.01 | 0.01 | 63 | 1024.2 |
| 20260905030542 | 68 | 142 | 4.0 | 8.0 | 0.00 | 0.01 | 0.01 | 62 | 1024.2 |
| 20260905025542 | 68 | 144 | 4.0 | 10.0 | 0.00 | 0.01 | 0.01 | 62 | 1024.1 |
| 20260905025044 | 68 | 157 | 4.0 | 10.0 | 0.00 | 0.01 | 0.01 | 62 | 1024.0 |
| 20260905024556 | 69 | 138 | 5.0 | 10.0 | 0.00 | 0.01 | 0.01 | 61 | 1023.8 |
| 20260905024043 | 69 | 129 | 5.0 | 13.0 | 0.00 | 0.01 | 0.01 | 61 | 1023.7 |
| 20260905023542 | 69 | 169 | 6.0 | 16.0 | 0.00 | 0.01 | 0.01 | 61 | 1023.7 |
| 20260905023054 | 69 | 193 | 7.0 | 16.0 | 0.00 | 0.01 | 0.01 | 61 | 1023.5 |
| 20260905022545 | 69 | 123 | 7.0 | 14.0 | 0.00 | 0.01 | 0.01 | 60 | 1023.5 |
| 20260905022042 | 69 | 136 | 8.0 | 14.0 | 0.00 | 0.01 | 0.01 | 60 | 1023.3 |
| 20260905021552 | 69 | 133 | 8.0 | 14.0 | 0.00 | 0.01 | 0.01 | 60 | 1023.2 |
| 20260905021041 | 69 | 123 | 7.0 | 16.0 | 0.00 | 0.01 | 0.01 | 59 | 1023.1 |
| 20260905020541 | 69 | 141 | 8.0 | 18.0 | 0.00 | 0.01 | 0.01 | 59 | 1023.1 |
| 20260905020052 | 69 | 158 | 9.0 | 18.0 | 0.00 | 0.01 | 0.01 | 59 | 1023.1 |
| 20260905015542 | 70 | 163 | 9.0 | 17.0 | 0.00 | 0.01 | 0.01 | 59 | 1023.1 |
| 20260905015042 | 70 | 107 | 9.0 | 16.0 | 0.00 | 0.01 | 0.01 | 58 | 1023.1 |
| 20260905014610 | 70 | 144 | 9.0 | 17.0 | 0.00 | 0.01 | 0.01 | 58 | 1023.1 |
| 20260905014042 | 70 | 146 | 10.0 | 17.0 | 0.00 | 0.01 | 0.01 | 58 | 1023.1 |
| 20260905013542 | 70 | 175 | 9.0 | 17.0 | 0.00 | 0.01 | 0.01 | 58 | 1023.1 |
| 20260905013117 | 70 | 132 | 9.0 | 26.0 | 0.00 | 0.01 | 0.01 | 57 | 1023.1 |
| 20260905012542 | 71 | 134 | 9.0 | 26.0 | 0.00 | 0.01 | 0.01 | 57 | 1023.1 |
| 20260905012042 | 71 | 160 | 10.0 | 23.0 | 0.00 | 0.01 | 0.01 | 57 | 1023.1 |
| 20260905011556 | 71 | 164 | 10.0 | 23.0 | 0.00 | 0.01 | 0.01 | 56 | 1023.1 |
| 20260905011041 | 72 | 167 | 8.0 | 27.0 | 0.00 | 0.01 | 0.01 | 55 | 1023.0 |
| 20260905010543 | 73 | 165 | 14.0 | 27.0 | 0.00 | 0.01 | 0.01 | 54 | 1023.1 |
| 20260905010052 | 74 | 156 | 13.0 | 27.0 | 0.00 | 0.01 | 0.01 | 51 | 1023.0 |
| 20260905005542 | 76 | 131 | 12.0 | 27.0 | 0.00 | 0.01 | 0.01 | 47 | 1022.8 |
| 20260905005042 | 78 | 134 | 9.0 | 19.0 | 0.00 | 0.01 | 0.01 | 42 | 1022.7 |
| 20260905004638 | 79 | 192 | 5.0 | 10.0 | 0.00 | 0.01 | 0.01 | 38 | 1022.3 |
| 20260905004042 | 79 | 197 | 4.0 | 10.0 | 0.00 | 0.01 | 0.01 | 38 | 1022.3 |
| 20260905003542 | 80 | 180 | 4.0 | 10.0 | 0.00 | 0.01 | 0.01 | 38 | 1022.2 |
| 20260905003055 | 80 | 160 | 5.0 | 10.0 | 0.00 | 0.01 | 0.01 | 37 | 1022.2 |
| 20260905002542 | 80 | 218 | 4.0 | 9.0 | 0.00 | 0.01 | 0.01 | 37 | 1022.2 |
| 20260905002045 | 80 | 201 | 3.0 | 9.0 | 0.00 | 0.01 | 0.01 | 36 | 1022.2 |
| 20260905001559 | 80 | 188 | 4.0 | 9.0 | 0.00 | 0.01 | 0.01 | 35 | 1022.1 |
| 20260905001042 | 81 | 221 | 4.0 | 9.0 | 0.00 | 0.01 | 0.01 | 35 | 1022.0 |
| 20260905000543 | 81 | 205 | 4.0 | 11.0 | 0.00 | 0.01 | 0.01 | 35 | 1022.0 |
| 20260905000056 | 81 | 228 | 5.0 | 11.0 | 0.00 | 0.01 | 0.01 | 35 | 1021.9 |
| 20260904235543 | 81 | 226 | 3.0 | 10.0 | 0.00 | 0.01 | 0.01 | 35 | 1021.9 |
| 20260904235042 | 81 | 197 | 5.0 | 10.0 | 0.00 | 0.01 | 0.01 | 35 | 1021.9 |
| 20260904234603 | 82 | 221 | 6.0 | 12.0 | 0.00 | 0.01 | 0.01 | 35 | 1021.8 |
| 20260904234042 | 82 | 181 | 6.0 | 13.0 | 0.00 | 0.01 | 0.01 | 35 | 1021.7 |
| 20260904233542 | 82 | 158 | 5.0 | 13.0 | 0.00 | 0.01 | 0.01 | 35 | 1021.7 |
| 20260904233055 | 83 | 204 | 5.0 | 11.0 | 0.00 | 0.01 | 0.01 | 35 | 1021.7 |
| 20260904232542 | 83 | 194 | 5.0 | 11.0 | 0.00 | 0.01 | 0.01 | 33 | 1021.7 |
| 20260904232046 | 83 | 175 | 4.0 | 11.0 | 0.00 | 0.01 | 0.01 | 33 | 1021.7 |
| 20260904231551 | 84 | 178 | 5.0 | 11.0 | 0.00 | 0.01 | 0.01 | 33 | 1021.7 |
| 20260904231042 | 84 | 183 | 4.0 | 8.0 | 0.00 | 0.01 | 0.01 | 32 | 1021.7 |
| 20260904230541 | 84 | 179 | 2.0 | 10.0 | 0.00 | 0.01 | 0.01 | 33 | 1021.6 |
| 20260904230052 | 85 | 202 | 5.0 | 11.0 | 0.00 | 0.01 | 0.01 | 32 | 1021.5 |
| 20260904225542 | 85 | 184 | 5.0 | 11.0 | 0.00 | 0.01 | 0.01 | 32 | 1021.5 |
| 20260904225046 | 86 | 161 | 4.0 | 11.0 | 0.00 | 0.01 | 0.01 | 31 | 1021.5 |
| 20260904224547 | 87 | 184 | 6.0 | 11.0 | 0.00 | 0.01 | 0.01 | 30 | 1021.6 |
| 20260904224043 | 88 | 181 | 5.0 | 11.0 | 0.00 | 0.01 | 0.01 | 29 | 1021.5 |
| 20260904223542 | 89 | 157 | 7.0 | 12.0 | 0.00 | 0.01 | 0.01 | 28 | 1021.5 |
| 20260904223056 | 89 | 256 | 4.0 | 12.0 | 0.00 | 0.01 | 0.01 | 27 | 1021.5 |
| 20260904222542 | 89 | 237 | 6.0 | 12.0 | 0.00 | 0.01 | 0.01 | 27 | 1021.5 |
| 20260904222041 | 89 | 134 | 6.0 | 13.0 | 0.00 | 0.01 | 0.01 | 29 | 1021.4 |
| 20260904221556 | 89 | 194 | 6.0 | 16.0 | 0.00 | 0.01 | 0.01 | 28 | 1021.5 |
| 20260904221042 | 89 | 230 | 6.0 | 16.0 | 0.00 | 0.01 | 0.01 | 28 | 1021.5 |
| 20260904220543 | 90 | 264 | 3.0 | 11.0 | 0.00 | 0.01 | 0.01 | 28 | 1021.5 |
| 20260904220052 | 90 | 294 | 5.0 | 13.0 | 0.00 | 0.01 | 0.01 | 27 | 1021.5 |
| 20260904215542 | 90 | 202 | 7.0 | 14.0 | 0.00 | 0.01 | 0.01 | 27 | 1021.7 |
| 20260904215042 | 91 | 259 | 5.0 | 14.0 | 0.00 | 0.01 | 0.01 | 27 | 1021.6 |
| 20260904214612 | 91 | 190 | 4.0 | 9.0 | 0.00 | 0.01 | 0.01 | 27 | 1021.7 |
| 20260904214042 | 91 | 220 | 1.0 | 9.0 | 0.00 | 0.01 | 0.01 | 27 | 1021.7 |
| 20260904213542 | 91 | 180 | 3.0 | 10.0 | 0.00 | 0.01 | 0.01 | 27 | 1021.8 |
| 20260904213056 | 91 | 221 | 3.0 | 10.0 | 0.00 | 0.01 | 0.01 | 27 | 1021.9 |
| 20260904212545 | 91 | 193 | 3.0 | 14.0 | 0.00 | 0.01 | 0.01 | 28 | 1022.0 |
| 20260904212042 | 91 | 290 | 7.0 | 14.0 | 0.00 | 0.01 | 0.01 | 27 | 1022.0 |
| 20260904211554 | 92 | 179 | 4.0 | 8.0 | 0.00 | 0.01 | 0.01 | 27 | 1022.0 |
| 20260904211041 | 91 | 229 | 2.0 | 5.0 | 0.00 | 0.01 | 0.01 | 28 | 1022.1 |
| 20260904210541 | 90 | 278 | 1.0 | 4.0 | 0.00 | 0.01 | 0.01 | 30 | 1022.1 |
| 20260904210059 | 89 | 261 | 0.0 | 5.0 | 0.00 | 0.01 | 0.01 | 30 | 1022.2 |
| 20260904205545 | 88 | 0 | 0.0 | 14.0 | 0.00 | 0.01 | 0.01 | 31 | 1022.3 |
| 20260904205042 | 87 | 308 | 2.0 | 14.0 | 0.00 | 0.01 | 0.01 | 31 | 1022.4 |
| 20260904204554 | 87 | 259 | 7.0 | 14.0 | 0.00 | 0.01 | 0.01 | 31 | 1022.5 |
| 20260904204046 | 88 | 252 | 4.0 | 9.0 | 0.00 | 0.01 | 0.01 | 32 | 1022.5 |
| 20260904203542 | 88 | 310 | 4.0 | 8.0 | 0.00 | 0.01 | 0.01 | 31 | 1022.5 |
| 20260904203053 | 88 | 340 | 1.0 | 11.0 | 0.00 | 0.01 | 0.01 | 31 | 1022.7 |
| 20260904202542 | 88 | 0 | 1.0 | 11.0 | 0.00 | 0.01 | 0.01 | 32 | 1022.7 |
| 20260904202042 | 88 | 244 | 6.0 | 11.0 | 0.00 | 0.01 | 0.01 | 31 | 1022.8 |
| 20260904201553 | 88 | 10 | 2.0 | 6.0 | 0.00 | 0.01 | 0.01 | 32 | 1022.7 |
| 20260904201043 | 88 | 245 | 2.0 | 9.0 | 0.00 | 0.01 | 0.01 | 32 | 1022.8 |
| 20260904200542 | 88 | 352 | 2.0 | 10.0 | 0.00 | 0.01 | 0.01 | 31 | 1022.9 |
| 20260904200117 | 88 | 311 | 3.0 | 11.0 | 0.00 | 0.01 | 0.01 | 32 | 1023.0 |
| 20260904195541 | 89 | 315 | 3.0 | 11.0 | 0.00 | 0.01 | 0.01 | 31 | 1023.1 |
| 20260904195042 | 89 | 319 | 3.0 | 8.0 | 0.00 | 0.01 | 0.01 | 31 | 1023.2 |
| 20260904194609 | 89 | 200 | 0.0 | 8.0 | 0.00 | 0.01 | 0.01 | 31 | 1023.4 |
| 20260904194042 | 88 | 104 | 3.0 | 9.0 | 0.00 | 0.01 | 0.01 | 33 | 1023.5 |
| 20260904193542 | 88 | 153 | 5.0 | 9.0 | 0.00 | 0.01 | 0.01 | 33 | 1023.5 |
| 20260904193052 | 88 | 104 | 4.0 | 9.0 | 0.00 | 0.01 | 0.01 | 34 | 1023.5 |
| 20260904192541 | 87 | 138 | 2.0 | 7.0 | 0.00 | 0.01 | 0.01 | 35 | 1023.6 |
| 20260904192046 | 86 | 116 | 3.0 | 7.0 | 0.00 | 0.01 | 0.01 | 35 | 1023.7 |
| 20260904191550 | 86 | 92 | 3.0 | 11.0 | 0.00 | 0.01 | 0.01 | 36 | 1023.7 |
| 20260904191042 | 85 | 109 | 3.0 | 11.0 | 0.00 | 0.01 | 0.01 | 37 | 1023.8 |
| 20260904190542 | 84 | 157 | 4.0 | 11.0 | 0.00 | 0.01 | 0.01 | 37 | 1023.8 |
| 20260904190057 | 84 | 142 | 3.0 | 11.0 | 0.00 | 0.01 | 0.01 | 39 | 1024.0 |
| 20260904185541 | 83 | 69 | 5.0 | 11.0 | 0.00 | 0.01 | 0.01 | 39 | 1024.0 |
| 20260904185041 | 82 | 167 | 3.0 | 9.0 | 0.00 | 0.01 | 0.01 | 41 | 1024.2 |
| 20260904184610 | 81 | 0 | 3.0 | 9.0 | 0.00 | 0.01 | 0.01 | 40 | 1024.3 |
| 20260904184043 | 80 | 143 | 2.0 | 9.0 | 0.00 | 0.01 | 0.01 | 42 | 1024.3 |
| 20260904183545 | 80 | 0 | 0.0 | 9.0 | 0.00 | 0.01 | 0.01 | 43 | 1024.3 |
| 20260904183050 | 79 | 161 | 1.0 | 7.0 | 0.00 | 0.01 | 0.01 | 43 | 1024.5 |
| 20260904182542 | 79 | 132 | 0.0 | 6.0 | 0.00 | 0.01 | 0.01 | 43 | 1024.5 |
| 20260904182043 | 78 | 212 | 2.0 | 6.0 | 0.00 | 0.01 | 0.01 | 43 | 1024.5 |
| 20260904181612 | 78 | 0 | 0.0 | 6.0 | 0.00 | 0.01 | 0.01 | 44 | 1024.7 |
| 20260904181042 | 78 | 275 | 1.0 | 7.0 | 0.00 | 0.01 | 0.01 | 45 | 1024.7 |
| 20260904180542 | 77 | 238 | 3.0 | 9.0 | 0.00 | 0.01 | 0.01 | 46 | 1024.8 |
| 20260904180055 | 77 | 225 | 4.0 | 12.0 | 0.00 | 0.01 | 0.01 | 47 | 1024.8 |
| 20260904175543 | 77 | 204 | 5.0 | 13.0 | 0.00 | 0.01 | 0.01 | 47 | 1025.0 |
| 20260904175042 | 77 | 200 | 7.0 | 13.0 | 0.00 | 0.01 | 0.01 | 47 | 1025.0 |
| 20260904174603 | 77 | 246 | 5.0 | 11.0 | 0.00 | 0.01 | 0.01 | 47 | 1025.1 |
| 20260904174042 | 77 | 202 | 2.0 | 11.0 | 0.00 | 0.01 | 0.01 | 47 | 1025.0 |
| 20260904173542 | 76 | 240 | 1.0 | 5.0 | 0.00 | 0.01 | 0.01 | 45 | 1025.0 |
| 20260904173058 | 76 | 302 | 2.0 | 5.0 | 0.00 | 0.01 | 0.01 | 44 | 1024.9 |
| 20260904172542 | 75 | 327 | 2.0 | 5.0 | 0.00 | 0.01 | 0.01 | 45 | 1024.9 |
| 20260904172044 | 75 | 215 | 1.0 | 6.0 | 0.00 | 0.01 | 0.01 | 46 | 1024.9 |
| 20260904171621 | 75 | 65 | 3.0 | 7.0 | 0.00 | 0.01 | 0.01 | 45 | 1024.8 |
| 20260904171043 | 75 | 349 | 2.0 | 7.0 | 0.00 | 0.01 | 0.01 | 46 | 1024.9 |
| 20260904170541 | 75 | 313 | 1.0 | 4.0 | 0.00 | 0.01 | 0.01 | 48 | 1024.9 |
| 20260904170050 | 74 | 0 | 1.0 | 9.0 | 0.00 | 0.01 | 0.01 | 48 | 1024.9 |
| 20260904165542 | 74 | 293 | 1.0 | 9.0 | 0.00 | 0.01 | 0.01 | 50 | 1024.9 |
| 20260904165041 | 74 | 331 | 2.0 | 8.0 | 0.00 | 0.01 | 0.01 | 49 | 1024.7 |
| 20260904164618 | 74 | 17 | 3.0 | 8.0 | 0.00 | 0.01 | 0.01 | 49 | 1024.7 |
| 20260904164042 | 74 | 323 | 3.0 | 9.0 | 0.00 | 0.01 | 0.01 | 49 | 1024.7 |
| 20260904163542 | 74 | 5 | 0.0 | 9.0 | 0.00 | 0.01 | 0.01 | 49 | 1024.7 |
| 20260904163057 | 73 | 19 | 4.0 | 9.0 | 0.00 | 0.01 | 0.01 | 50 | 1024.7 |
| 20260904162542 | 73 | 333 | 2.0 | 4.0 | 0.00 | 0.01 | 0.01 | 52 | 1024.8 |
| 20260904162041 | 72 | 0 | 0.0 | 4.0 | 0.00 | 0.01 | 0.01 | 54 | 1024.9 |
| 20260904161559 | 71 | 336 | 0.0 | 5.0 | 0.00 | 0.01 | 0.01 | 54 | 1024.8 |
| 20260904161042 | 71 | 336 | 2.0 | 5.0 | 0.00 | 0.01 | 0.01 | 54 | 1024.8 |
| 20260904160543 | 71 | 352 | 2.0 | 5.0 | 0.00 | 0.01 | 0.01 | 54 | 1024.7 |
| 20260904160053 | 70 | 313 | 1.0 | 5.0 | 0.00 | 0.01 | 0.01 | 56 | 1024.8 |
| 20260904155543 | 70 | 198 | 1.0 | 6.0 | 0.00 | 0.01 | 0.01 | 58 | 1024.9 |
| 20260904155042 | 69 | 161 | 2.0 | 6.0 | 0.00 | 0.01 | 0.01 | 58 | 1024.9 |
| 20260904154552 | 69 | 171 | 2.0 | 7.0 | 0.00 | 0.01 | 0.01 | 60 | 1024.9 |
| 20260904154042 | 68 | 218 | 2.0 | 7.0 | 0.00 | 0.01 | 0.01 | 60 | 1024.9 |
| 20260904153542 | 68 | 193 | 3.0 | 7.0 | 0.00 | 0.01 | 0.01 | 61 | 1024.8 |
| 20260904153056 | 67 | 196 | 2.0 | 5.0 | 0.00 | 0.01 | 0.01 | 63 | 1024.8 |
| 20260904152542 | 67 | 207 | 1.0 | 4.0 | 0.00 | 0.01 | 0.01 | 64 | 1024.8 |
| 20260904152041 | 67 | 207 | 2.0 | 6.0 | 0.00 | 0.01 | 0.01 | 65 | 1024.7 |
| 20260904151555 | 66 | 175 | 2.0 | 6.0 | 0.00 | 0.01 | 0.01 | 66 | 1024.6 |
| 20260904151042 | 66 | 163 | 1.0 | 5.0 | 0.00 | 0.01 | 0.01 | 68 | 1024.7 |
| 20260904150541 | 66 | 187 | 1.0 | 4.0 | 0.00 | 0.01 | 0.01 | 68 | 1024.6 |
| 20260904150106 | 65 | 0 | 0.0 | 3.0 | 0.00 | 0.01 | 0.01 | 69 | 1024.5 |
| 20260904145542 | 65 | 0 | 0.0 | 4.0 | 0.00 | 0.01 | 0.01 | 71 | 1024.6 |
| 20260904145042 | 65 | 140 | 1.0 | 4.0 | 0.00 | 0.01 | 0.01 | 71 | 1024.5 |
| 20260904144557 | 65 | 140 | 1.0 | 4.0 | 0.00 | 0.01 | 0.01 | 72 | 1024.6 |
| 20260904144042 | 64 | 148 | 0.0 | 3.0 | 0.00 | 0.01 | 0.01 | 73 | 1024.5 |
| 20260904143542 | 64 | 0 | 0.0 | 3.0 | 0.00 | 0.01 | 0.01 | 73 | 1024.5 |
| 20260904143107 | 64 | 0 | 0.0 | 3.0 | 0.00 | 0.01 | 0.01 | 73 | 1024.4 |
| 20260904142542 | 63 | 0 | 1.0 | 3.0 | 0.00 | 0.01 | 0.01 | 74 | 1024.4 |
| 20260904142042 | 63 | 140 | 0.0 | 2.0 | 0.00 | 0.01 | 0.01 | 74 | 1024.4 |
| 20260904141604 | 63 | 0 | 0.0 | 2.0 | 0.00 | 0.01 | 0.01 | 74 | 1024.2 |
| 20260904141041 | 63 | 140 | 0.0 | 2.0 | 0.00 | 0.01 | 0.01 | 75 | 1024.3 |
| 20260904140542 | 62 | 0 | 0.0 | 2.0 | 0.00 | 0.01 | 0.01 | 75 | 1024.3 |
| 20260904140059 | 62 | 0 | 0.0 | 3.0 | 0.00 | 0.01 | 0.01 | 75 | 1024.2 |
| 20260904135542 | 62 | 140 | 0.0 | 5.0 | 0.00 | 0.01 | 0.01 | 75 | 1024.2 |
| 20260904135042 | 62 | 140 | 1.0 | 5.0 | 0.00 | 0.01 | 0.01 | 76 | 1024.2 |
| 20260904134604 | 62 | 140 | 1.0 | 3.0 | 0.00 | 0.01 | 0.01 | 76 | 1024.1 |
| 20260904134050 | 62 | 0 | 0.0 | 2.0 | 0.00 | 0.01 | 0.01 | 76 | 1024.0 |
| 20260904133542 | 62 | 0 | 1.0 | 2.0 | 0.00 | 0.01 | 0.01 | 76 | 1023.9 |
| 20260904133116 | 62 | 0 | 0.0 | 4.0 | 0.00 | 0.01 | 0.01 | 76 | 1023.8 |
| 20260904132542 | 61 | 140 | 1.0 | 4.0 | 0.00 | 0.01 | 0.01 | 76 | 1023.7 |
| 20260904132043 | 61 | 140 | 2.0 | 4.0 | 0.00 | 0.01 | 0.01 | 76 | 1023.6 |
| 20260904131602 | 61 | 85 | 2.0 | 4.0 | 0.00 | 0.01 | 0.01 | 76 | 1023.5 |
| 20260904131042 | 61 | 142 | 2.0 | 6.0 | 0.00 | 0.01 | 0.01 | 76 | 1023.5 |
| 20260904130542 | 61 | 134 | 2.0 | 6.0 | 0.00 | 0.01 | 0.01 | 76 | 1023.5 |
| 20260904130100 | 61 | 124 | 2.0 | 6.0 | 0.01 | 0.01 | 0.01 | 77 | 1023.3 |
| 20260904125542 | 61 | 133 | 3.0 | 6.0 | 0.01 | 0.01 | 0.01 | 77 | 1023.4 |
| 20260904125042 | 61 | 155 | 2.0 | 7.0 | 0.01 | 0.01 | 0.01 | 77 | 1023.2 |
| 20260904124605 | 61 | 128 | 3.0 | 7.0 | 0.01 | 0.01 | 0.01 | 77 | 1023.1 |
| 20260904124042 | 61 | 134 | 2.0 | 4.0 | 0.01 | 0.01 | 0.01 | 78 | 1023.1 |
| 20260904123541 | 61 | 135 | 2.0 | 5.0 | 0.01 | 0.01 | 0.01 | 78 | 1023.0 |
| 20260904123103 | 61 | 135 | 2.0 | 5.0 | 0.01 | 0.01 | 0.01 | 78 | 1023.0 |
| 20260904122544 | 61 | 135 | 2.0 | 5.0 | 0.01 | 0.01 | 0.01 | 78 | 1023.0 |
| 20260904122042 | 61 | 137 | 3.0 | 5.0 | 0.01 | 0.01 | 0.01 | 78 | 1023.0 |
| 20260904121556 | 62 | 144 | 3.0 | 5.0 | 0.01 | 0.01 | 0.01 | 78 | 1023.1 |
| 20260904121042 | 62 | 140 | 2.0 | 5.0 | 0.01 | 0.01 | 0.01 | 78 | 1023.0 |
| 20260904120544 | 62 | 142 | 2.0 | 5.0 | 0.01 | 0.01 | 0.01 | 78 | 1022.9 |
| 20260904115542 | 63 | 171 | 1.0 | 5.0 | 0.00 | 0.00 | 0.00 | 76 | 1022.8 |
| 20260904115042 | 63 | 156 | 0.0 | 6.0 | 0.00 | 0.00 | 0.00 | 75 | 1022.8 |
| 20260904114601 | 63 | 163 | 1.0 | 6.0 | 0.00 | 0.00 | 0.00 | 75 | 1022.7 |
| 20260904114042 | 63 | 126 | 2.0 | 6.0 | 0.00 | 0.00 | 0.00 | 75 | 1022.6 |
| 20260904113541 | 63 | 151 | 3.0 | 8.0 | 0.00 | 0.00 | 0.00 | 74 | 1022.7 |
| 20260904113053 | 64 | 140 | 2.0 | 8.0 | 0.00 | 0.00 | 0.00 | 73 | 1022.7 |
| 20260904112541 | 64 | 161 | 3.0 | 7.0 | 0.00 | 0.00 | 0.00 | 70 | 1022.6 |
| 20260904112042 | 64 | 171 | 3.0 | 8.0 | 0.00 | 0.00 | 0.00 | 71 | 1022.5 |
| 20260904111554 | 64 | 164 | 4.0 | 8.0 | 0.00 | 0.00 | 0.00 | 71 | 1022.4 |
| 20260904111042 | 64 | 146 | 3.0 | 7.0 | 0.00 | 0.00 | 0.00 | 71 | 1022.5 |
| 20260904110544 | 64 | 159 | 3.0 | 7.0 | 0.00 | 0.00 | 0.00 | 70 | 1022.4 |
| 20260904110051 | 64 | 161 | 2.0 | 8.0 | 0.00 | 0.00 | 0.00 | 71 | 1022.4 |
| 20260904105545 | 64 | 183 | 3.0 | 8.0 | 0.00 | 0.00 | 0.00 | 69 | 1022.3 |
| 20260904105042 | 64 | 133 | 4.0 | 8.0 | 0.00 | 0.00 | 0.00 | 70 | 1022.3 |
| 20260904104612 | 63 | 108 | 2.0 | 7.0 | 0.00 | 0.00 | 0.00 | 70 | 1022.3 |
| 20260904104041 | 63 | 159 | 3.0 | 9.0 | 0.00 | 0.00 | 0.00 | 69 | 1022.2 |
| 20260904103542 | 63 | 128 | 3.0 | 9.0 | 0.00 | 0.00 | 0.00 | 71 | 1022.3 |
| 20260904103057 | 63 | 130 | 3.0 | 9.0 | 0.00 | 0.00 | 0.00 | 71 | 1022.0 |
| 20260904102543 | 63 | 127 | 2.0 | 7.0 | 0.00 | 0.00 | 0.00 | 71 | 1022.1 |
| 20260904102043 | 63 | 98 | 1.0 | 5.0 | 0.00 | 0.00 | 0.00 | 71 | 1022.0 |
| 20260904101551 | 63 | 0 | 1.0 | 6.0 | 0.00 | 0.00 | 0.00 | 70 | 1022.0 |
| 20260904101042 | 63 | 101 | 1.0 | 6.0 | 0.00 | 0.00 | 0.00 | 70 | 1022.0 |
| 20260904100542 | 63 | 78 | 3.0 | 7.0 | 0.00 | 0.00 | 0.00 | 70 | 1021.9 |
| 20260904100118 | 63 | 119 | 1.0 | 7.0 | 0.00 | 0.00 | 0.00 | 72 | 1022.0 |
| 20260904095542 | 63 | 125 | 3.0 | 7.0 | 0.00 | 0.00 | 0.00 | 72 | 1022.0 |
| 20260904095042 | 63 | 87 | 3.0 | 7.0 | 0.00 | 0.00 | 0.00 | 72 | 1021.9 |
| 20260904094603 | 63 | 96 | 2.0 | 6.0 | 0.00 | 0.00 | 0.00 | 72 | 1021.9 |
| 20260904094041 | 63 | 102 | 1.0 | 8.0 | 0.00 | 0.00 | 0.00 | 73 | 1021.9 |
| 20260904093542 | 63 | 88 | 4.0 | 8.0 | 0.00 | 0.00 | 0.00 | 73 | 1021.9 |
| 20260904093051 | 63 | 94 | 3.0 | 9.0 | 0.00 | 0.00 | 0.00 | 73 | 1021.9 |
| 20260904092542 | 63 | 98 | 6.0 | 9.0 | 0.00 | 0.00 | 0.00 | 72 | 1021.7 |
| 20260904092047 | 64 | 94 | 2.0 | 5.0 | 0.00 | 0.00 | 0.00 | 71 | 1021.9 |
| 20260904091558 | 64 | 133 | 2.0 | 6.0 | 0.00 | 0.00 | 0.00 | 70 | 1022.1 |
| 20260904091042 | 64 | 153 | 2.0 | 6.0 | 0.00 | 0.00 | 0.00 | 70 | 1022.3 |
| 20260904090541 | 65 | 135 | 3.0 | 5.0 | 0.00 | 0.00 | 0.00 | 69 | 1022.3 |
| 20260904090054 | 65 | 139 | 2.0 | 5.0 | 0.00 | 0.00 | 0.00 | 65 | 1022.2 |
| 20260904085542 | 65 | 79 | 0.0 | 2.0 | 0.00 | 0.00 | 0.00 | 62 | 1022.2 |
| 20260904085042 | 65 | 79 | 0.0 | 2.0 | 0.00 | 0.00 | 0.00 | 61 | 1022.1 |
| 20260904084552 | 65 | 79 | 0.0 | 3.0 | 0.00 | 0.00 | 0.00 | 61 | 1022.1 |
| 20260904084041 | 65 | 79 | 1.0 | 3.0 | 0.00 | 0.00 | 0.00 | 60 | 1022.1 |
| 20260904083542 | 65 | 79 | 0.0 | 3.0 | 0.00 | 0.00 | 0.00 | 60 | 1022.0 |
| 20260904083050 | 65 | 79 | 1.0 | 3.0 | 0.00 | 0.00 | 0.00 | 60 | 1022.0 |
| 20260904082542 | 65 | 79 | 2.0 | 3.0 | 0.00 | 0.00 | 0.00 | 60 | 1022.0 |
| 20260904082046 | 65 | 79 | 1.0 | 3.0 | 0.00 | 0.00 | 0.00 | 60 | 1022.1 |
| 20260904081555 | 65 | 79 | 1.0 | 3.0 | 0.00 | 0.00 | 0.00 | 60 | 1022.1 |
| 20260904081042 | 65 | 79 | 1.0 | 2.0 | 0.00 | 0.00 | 0.00 | 61 | 1022.1 |
| 20260904080542 | 64 | 0 | 0.0 | 3.0 | 0.00 | 0.00 | 0.00 | 61 | 1022.1 |
| 20260904080113 | 64 | 79 | 1.0 | 3.0 | 0.00 | 0.00 | 0.00 | 61 | 1022.2 |
| 20260904075542 | 64 | 79 | 2.0 | 3.0 | 0.00 | 0.00 | 0.00 | 61 | 1022.1 |
| 20260904075042 | 64 | 79 | 1.0 | 2.0 | 0.00 | 0.00 | 0.00 | 61 | 1022.2 |
| 20260904074603 | 64 | 79 | 0.0 | 2.0 | 0.00 | 0.00 | 0.00 | 61 | 1022.2 |
| 20260904074042 | 64 | 79 | 1.0 | 4.0 | 0.00 | 0.00 | 0.00 | 61 | 1022.2 |
| 20260904073542 | 64 | 79 | 1.0 | 5.0 | 0.00 | 0.00 | 0.00 | 61 | 1022.2 |
| 20260904073048 | 64 | 79 | 3.0 | 5.0 | 0.00 | 0.00 | 0.00 | 60 | 1022.2 |
| 20260904072542 | 65 | 84 | 2.0 | 4.0 | 0.00 | 0.00 | 0.00 | 60 | 1022.2 |
| 20260904072042 | 65 | 78 | 1.0 | 4.0 | 0.00 | 0.00 | 0.00 | 60 | 1022.3 |
| 20260904071556 | 65 | 78 | 3.0 | 4.0 | 0.00 | 0.00 | 0.00 | 59 | 1022.2 |
| 20260904071042 | 65 | 309 | 1.0 | 3.0 | 0.00 | 0.00 | 0.00 | 59 | 1022.3 |
| 20260904070542 | 65 | 309 | 0.0 | 3.0 | 0.00 | 0.00 | 0.00 | 58 | 1022.4 |
| 20260904070054 | 65 | 0 | 0.0 | 3.0 | 0.00 | 0.00 | 0.00 | 58 | 1022.3 |
| 20260904065542 | 66 | 0 | 1.0 | 3.0 | 0.00 | 0.00 | 0.00 | 58 | 1022.4 |
| 20260904065041 | 66 | 309 | 0.0 | 4.0 | 0.00 | 0.00 | 0.00 | 58 | 1022.3 |
| 20260904064602 | 66 | 309 | 2.0 | 4.0 | 0.00 | 0.00 | 0.00 | 58 | 1022.4 |
| 20260904064041 | 66 | 309 | 2.0 | 4.0 | 0.00 | 0.00 | 0.00 | 58 | 1022.2 |
| 20260904063543 | 66 | 309 | 2.0 | 4.0 | 0.00 | 0.00 | 0.00 | 57 | 1022.4 |
| 20260904063051 | 67 | 309 | 2.0 | 4.0 | 0.00 | 0.00 | 0.00 | 56 | 1022.4 |
| 20260904062542 | 67 | 309 | 2.0 | 4.0 | 0.00 | 0.00 | 0.00 | 56 | 1022.4 |
| 20260904062042 | 67 | 309 | 2.0 | 4.0 | 0.00 | 0.00 | 0.00 | 55 | 1022.3 |
| 20260904061555 | 67 | 309 | 1.0 | 2.0 | 0.00 | 0.00 | 0.00 | 54 | 1022.4 |
| 20260904061043 | 67 | 0 | 0.0 | 2.0 | 0.00 | 0.00 | 0.00 | 53 | 1022.5 |
| 20260904060542 | 68 | 0 | 0.0 | 3.0 | 0.00 | 0.00 | 0.00 | 53 | 1022.4 |
| 20260904060122 | 68 | 309 | 1.0 | 3.0 | 0.00 | 0.00 | 0.00 | 53 | 1022.4 |
| 20260904055542 | 68 | 309 | 1.0 | 3.0 | 0.00 | 0.00 | 0.00 | 53 | 1022.4 |
| 20260904055041 | 68 | 0 | 0.0 | 4.0 | 0.00 | 0.00 | 0.00 | 52 | 1022.4 |
| 20260904054552 | 68 | 309 | 2.0 | 4.0 | 0.00 | 0.00 | 0.00 | 52 | 1022.4 |
| 20260904054044 | 68 | 309 | 3.0 | 4.0 | 0.00 | 0.00 | 0.00 | 52 | 1022.3 |
| 20260904053541 | 68 | 309 | 2.0 | 5.0 | 0.00 | 0.00 | 0.00 | 52 | 1022.4 |
| 20260904053140 | 68 | 309 | 3.0 | 5.0 | 0.00 | 0.00 | 0.00 | 51 | 1022.5 |
| 20260904052542 | 68 | 314 | 2.0 | 4.0 | 0.00 | 0.00 | 0.00 | 51 | 1022.7 |
| 20260904052042 | 68 | 314 | 2.0 | 4.0 | 0.00 | 0.00 | 0.00 | 50 | 1022.6 |
| 20260904051608 | 68 | 314 | 2.0 | 4.0 | 0.00 | 0.00 | 0.00 | 50 | 1022.6 |
| 20260904051042 | 68 | 314 | 2.0 | 4.0 | 0.00 | 0.00 | 0.00 | 50 | 1022.5 |
| 20260904050542 | 68 | 74 | 1.0 | 3.0 | 0.00 | 0.00 | 0.00 | 50 | 1022.6 |
| 20260904050056 | 68 | 74 | 1.0 | 3.0 | 0.00 | 0.00 | 0.00 | 49 | 1022.6 |
| 20260904045542 | 68 | 74 | 1.0 | 2.0 | 0.00 | 0.00 | 0.00 | 50 | 1022.5 |